Regional Weather Roundup
Issued by NWS Sioux Falls, SD

Home | Current Version | Previous Version | Text Only | Print | Product List | Glossary On
Versions: 1 2 3 4 5 6 7 8 9 10 11 12 13 14 15 16 17 18 19 20 21 22 23 24 25 26 27 28 29 30 31 32 33 34 35 36 37 38 39 40 41 42 43 44 45 46 47 48 49 50
000
ASUS43 KFSD 070910
RWRFSD

WEATHER ROUNDUP FOR SE SOUTH DAKOTA/SW MINNESOTA/NW IOWA
NATIONAL WEATHER SERVICE SIOUX FALLS SD
300 AM CST SUN FEB 07 2016

NOTE: "FAIR" INDICATES FEW OR NO CLOUDS BELOW 12,000 FEET WITH NO
SIGNIFICANT WEATHER AND OR OBSTRUCTIONS TO VISIBILITY.


SDZ038>040-050-052>070-071000-
SOUTHEAST SOUTH DAKOTA

CITY           SKY/WX    TMP DP  RH WIND       PRES   REMARKS
BROOKINGS      CLEAR     35  27  72 W22G30    29.76R WCI  23
CHAMBERLAIN    PTCLDY    36  26  69 W16       29.95R
HURON          CLEAR     35  27  72 W17       29.86R WCI  25
MADISON        FAIR      34  32  93 W20G28    29.81R WCI  22
MITCHELL       CLEAR     37  28  70 W18G25    29.90R
SIOUX FALLS    CLEAR     36  27  69 W18G25    29.83R
WINNER         FAIR      37  24  59 W14       29.98R
YANKTON        CLEAR     39  27  60 W25       29.90R
$$

MNZ071-072-080-081-089-090-097-098-071000-
SOUTHWEST MINNESOTA

CITY           SKY/WX    TMP DP  RH WIND       PRES   REMARKS
FAIRMONT       MOCLDY    36  27  69 W18       29.74R
JACKSON        CLEAR     34  27  75 W17       29.76S WCI  23
LUVERNE        CLEAR     36  28  75 W23       29.80S
MARSHALL       MOCLDY    38  28  67 W23       29.73R
MONTEVIDEO     CLOUDY    37  28  70 NW14G21   29.71S
PIPESTONE      CLEAR     37  23  56 NW16G22   29.77R
REDWOOD FALLS  PTCLDY    36  28  73 W14       29.71R
TRACY          PTCLDY    36  29  74 W12G20    29.74S
WINDOM         CLEAR     34  27  75 W14       29.75S WCI  24
WORTHINGTON    CLEAR     34  25  69 W18       29.78R WCI  23
$$

IAZ001>003-012>014-020>022-031-032-NEZ013-014-SDZ071-071000-
NORTHWEST IOWA

CITY           SKY/WX    TMP DP  RH WIND       PRES   REMARKS
CHEROKEE       PTCLDY    33  29  85 W8        29.83F WCI  26
DENISON        CLOUDY    32  27  80 SW7       29.86S WCI  26
ESTHERVILLE    CLOUDY    35  27  72 W20G28    29.77R WCI  24
LE MARS        PTCLDY    39   1  20 NW17G25   29.87R
ORANGE CITY    CLEAR     34  28  80 W17       29.84R WCI  23
SHELDON        CLEAR     34  28  80 W21       29.80S WCI  22
SIOUX CITY     PTCLDY    42  27  55 NW15      29.88S
SPENCER        CLEAR     34  25  69 W17       29.79S WCI  23
STORM LAKE     PTCLDY    32  30  93 W12       29.83S WCI  23
$$

ABBREVIATIONS USED IN REMARKS
   TC - TEMPERATURE IN CELSIUS
  WCI - WIND CHILL INDEX
   HX - HEAT INDEX
  VSB - VISIBILITY




USA.gov is the U.S. government's official web portal to all federal, state and local government web resources and services.